Search for airport 
image banner adimage banner ad
image banner ad

DABT - Batna / Mostepha Ben Boulaid

Located in Batna, Algeria

ICAO - DABT, IATA - BLJ

Data provided by Airmate  

General information

Coordinates: N35°45'33" E6°19'21"
Elevation is 2700 feet MSL.
 
View others Airports in Batna Province

Operational data

Open for public use
Current time UTC:
Current local time:
Weather
METAR: DABT 230600Z 18003KT CAVOK 18/14 Q1018
TAF: TAF DABT 230500Z 2306/2406 33008KT 9999 SCT030 PROB40 TEMPO 2310/2322 FEW026CB PROB40 TEMPO 2314/2320 5000 -TSRA BKN090
View NOTAMs / SUP AIP / TFR affecting this airport [VIEW]
Communications frequencies: [VIEW]

Runways:

RWY identifierQFULength (ft)Width (ft)SurfaceLDA (ft)
0555°9843148ASP
23235°9843148

Airport contact information

Address: Batna Algeria

Satellite view of DABT